Jacksonville, AR

4:33 PM CDT on August 24, 2016 (GMT -0500)
Little Rock Air Force Base

Weather History for KLRF - March, 2014

Change the Weather History Date:

Sunday, March 30, 2014

  Actual Average Record
Temperature  
Mean Temperature 50 °F -  
Max Temperature 64 °F 65 °F 86 °F (1998)
Min Temperature 36 °F 46 °F 27 °F (1991)
Degree Days  
Heating Degree Days 15    
Moisture  
Dew Point 41 °F    
Average Humidity 73    
Maximum Humidity 96    
Minimum Humidity 50    
Precipitation  
Precipitation 0.00 in - - ()
Sea Level Pressure  
Sea Level Pressure 30.22 in    
Wind  
Wind Speed 3 mph (ESE)    
Max Wind Speed 10 mph    
Max Gust Speed -    
Visibility 10 miles    
Events      
Averages and records for this station are not official NWS values.
T = Trace of Precipitation, MM = Missing Value Source: NWS Daily Summary

Daily Weather History Graph

Daily Weather History Graph

Search for Another Location

Airport or City:

Trip Planner

Search our weather history database for the weather conditions in past years. The results will help you decide how hot, cold, wet, or windy it might be!

Date:

Astronomy

Mar. 30, 2014 Rise Set
Actual Time 6:58 AM CDT 7:28 PM CDT
Civil Twilight 6:32 AM CDT 7:53 PM CDT
Nautical Twilight 6:03 AM CDT 8:23 PM CDT
Astronomical Twilight 5:32 AM CDT 8:54 PM CDT
Moon 6:44 AM CDT (3/30) 7:40 PM CDT (3/30)
Length of Visible Light 13h 20m
Length of Day
12h 30m
Waning Crescent, 0% of the Moon is Illuminated
Mar 30
Waning Crescent
Mar 30
New
Apr 7
First Quarter
Apr 15
Full
Apr 22
Last Quarter

Hourly Weather History & Observations

Time (CDT) Temp. Dew Point Humidity Pressure Visibility Wind Dir Wind Speed Gust Speed Precip Events Conditions
12:58 AM 41.5 °F 37.2 °F 85% 30.27 in 10.0 mi WSW 2.3 mph - N/A   Clear
1:58 AM 40.1 °F 37.4 °F 90% 30.27 in 10.0 mi East 1.2 mph - N/A   Clear
2:58 AM 38.8 °F 37.0 °F 93% 30.27 in 10.0 mi Calm Calm - N/A   Clear
3:58 AM 38.8 °F 37.2 °F 94% 30.26 in 10.0 mi ENE 2.3 mph - N/A   Clear
4:58 AM 38.3 °F 36.5 °F 93% 30.27 in 10.0 mi Calm Calm - N/A   Clear
5:58 AM 36.9 °F 35.8 °F 96% 30.27 in 10.0 mi NE 1.2 mph - N/A   Clear
6:58 AM 36.3 °F 35.2 °F 96% 30.29 in 9.0 mi Calm Calm - N/A   Clear
7:58 AM 38.8 °F 37.6 °F 95% 30.30 in 10.0 mi ENE 2.3 mph - N/A   Clear
8:58 AM 47.3 °F 41.7 °F 81% 30.31 in 10.0 mi East 4.6 mph - N/A   Clear
9:58 AM 50.9 °F 41.7 °F 71% 30.32 in 10.0 mi South 3.5 mph - N/A   Clear
10:58 AM 54.0 °F 42.3 °F 65% 30.31 in 10.0 mi South 8.1 mph - N/A   Clear
11:58 AM 55.2 °F 43.0 °F 63% 30.30 in 10.0 mi SSE 6.9 mph - N/A   Partly Cloudy
12:58 PM 57.6 °F 42.3 °F 57% 30.27 in 10.0 mi SSE 8.1 mph - N/A   Clear
1:58 PM 58.3 °F 43.7 °F 58% 30.24 in 10.0 mi Variable 3.5 mph - N/A   Scattered Clouds
2:58 PM 60.8 °F 43.9 °F 54% 30.20 in 10.0 mi Variable 6.9 mph - N/A   Partly Cloudy
3:58 PM 63.3 °F 44.8 °F 51% 30.17 in 10.0 mi SE 10.4 mph - N/A   Clear
4:58 PM 64.0 °F 45.5 °F 51% 30.14 in 10.0 mi SSE 10.4 mph - N/A   Clear
5:58 PM 64.0 °F 44.8 °F 50% 30.12 in 10.0 mi ESE 8.1 mph - N/A   Clear
6:58 PM 61.9 °F 44.1 °F 52% 30.11 in 10.0 mi SE 8.1 mph - N/A   Clear
7:58 PM 57.7 °F 45.3 °F 63% 30.11 in 10.0 mi East 5.8 mph - N/A   Clear
8:58 PM 51.8 °F 45.9 °F 80% 30.11 in 10.0 mi East 2.3 mph - N/A   Clear
9:58 PM 50.2 °F 44.6 °F 81% 30.11 in 10.0 mi East 2.3 mph - N/A   Clear
10:58 PM 52.3 °F 43.5 °F 72% 30.09 in 10.0 mi SE 4.6 mph - N/A   Clear
11:58 PM 54.1 °F 43.3 °F 67% 30.09 in 5.0 mi SSE 3.5 mph - N/A   Haze